OBJECT F, 64053

Orbit data source: Space-Track

You're viewing an Uncataloged Satellite

Recently launched and/or uncataloged satellites may have evolving metadata. Metadata may include but not limited to: Owner, Maufacturer, Bus, Motor, and Mission.

OBJECT F, 64053 is a satellite owned by Youdian Daxue (CN) in SSO that was launched on Sat, 17 May 2025 UTC via a ZHUQUE-2E launch vehicle from the Jiuquan Satellite Launch Center, China (JSC). Unknown objects in Earth's orbit typically refer to objects detected orbiting the Earth but have not yet been identified or cataloged. These objects could be anything from previously untracked satellites, spent rocket stages, debris from satellite collisions, or even natural meteoroids temporarily captured by Earth's gravity.

Loading next visibility...
Identifier
64053, 2025-103F
Orbit
SSO
Country
Flag of CNCN / PRC
Related business
Flag of CNBeijing University of Posts and Telecommunications (CN)
Manufacturer
Changsha Tianyi
Mission
Operational Amateur Technology
Bus & Motor
TY, Unknown motor
Mass
~50 kg wet, ~50 kg dry
Launch date (UTC)
2025-05-17 (1 year ago)
Launch vehicle
ZHUQUE-2E
Launch site
Jiuquan Satellite Launch Center, China (JSC)
Object type
Unknown
Shape & HBR
Box + 2 Pan, 1.1 m
Radar Cross Section
0.255 m², Large (>1 m²)

Expand to show TLE details & history
Last TLE update: 6 hours ago

TLE from 6 hours ago
0 OBJECT F
1 64053U 25103F   26150.17641192  .00004722  00000-0  22971-3 0  9993
2 64053  97.3814 222.0749 0002282 199.1705 160.9444 15.18872260 57318
Epoch: 2026-05-30T04:14Z
TLE epoch observation values (Epoch: 2026-05-30T04:14:01.989Z)
Latitude
-0.00006°
Longitude
-89.12958°
Altitude
513.823 km
Speed
7.606 km/s
True Right ascension
14h 48m 17s
True Declination
0° 00' 00"
Sunlit
Object was in full shadow at epoch
Visualization orbit readout
Latitude
Unknown
Longitude
Unknown
Altitude
Unknown
Speed
Unknown
Apparent Right ascension
Unknown
Apparent Declination
Unknown
Sunlit
N/A
Visualization observer readout
Local Sidereal Time
19:45:49
Azimuth
Unknown
Elevation
Unknown
Doppler factor
Unknown
Orbital elements
Apogee altitude
507.785 km
Perigee altitude
504.643 km
Semi-major axis
6,884.351 km
Eccentricity
0.00023
Inclination
97.3814°
RAAN
222.0749°
Arg. of periapsis
199.1705°
True anomaly
160.95294°
Mean anomaly
160.9444°
Eccentric anomaly
160.94867°
Mean motion
3.79969 °/min
Orbital period
94.74 mins
BSTAR
0.00022971
Loading maneuver chart data...
Computing Atmospheric mass density...
Loading historical data...
Loading historical data...
Loading historical data...
Loading historical data...
Loading historical data...
Loading historical data...
Loading historical data...

Documentation

Showing up to 5 results
|